GSAT0232 (GALILEO 32)

Last updated on Mon Sep 21 2026 00:02:49 GMT+0000 (Coordinated Universal Time)

1 61182U 24167A 26262.40843428 .00000017 00000+0 00000+0 0 9995 2 61182 55.1639 218.7303 0005399 235.5148 318.9498 1.70473721 12486
UTC large
Height (km)
Speed (km/s)
/
Latitude / Longitude
Inclination (degrees)
Orbital Period (minutes)
Azimuth
Elevation
Range (km)
Doppler Factor

Next 0 passes for location: London (51.5072 / 0.1276)

No passes found over London.
GSAT0232 (GALILEO 32)